Address 0xcb8ae1ec0f07fac6455450b3826046411ec9dfb4 4

 
 
Txn Hash
Block
From
To
Value [Txn Fee]
0x33bbf9f738b4383149fc39c3eae74528cad0e7ac49172d28279d9553b5486ce980935542021-06-07 16:01:5255 days 4 hrs ago0x5b61c203d27d817da63d1b72158b5c9ac7616d0a IN 0xcb8ae1ec0f07fac6455450b3826046411ec9dfb40.592 BNB0.000105
0x1b1869e88c1ad6eb5c1d51cc26cd5574135274d29a0604c87392694cf1fa8f8980924852021-06-07 15:07:2955 days 5 hrs ago0xcb8ae1ec0f07fac6455450b3826046411ec9dfb4OUT Autofarm: Vault0 BNB0.00061685
0x23ad29982e1c64db5bd054a6b91171d630fdbf00f474daf56cd174c3ff3543c074757952021-05-17 2:22:4176 days 17 hrs ago0xcb8ae1ec0f07fac6455450b3826046411ec9dfb4OUT 0xefbfc05a3ee143d13793972e1fe789c17c1e51470 BNB0.00356927
0x1c3b2765641a487743a5f0636ef6533a9e2157a3cc7abd25068ce9203498e55274691482021-05-16 20:47:0876 days 23 hrs ago0xcb8ae1ec0f07fac6455450b3826046411ec9dfb4OUT Autofarm: Vault0 BNB0.00142889
0x66d9abce32f92bd417b3f64e2ea807a9954b65c6d4644c1878d4711a6133fc2e74691362021-05-16 20:46:3276 days 23 hrs ago0xcb8ae1ec0f07fac6455450b3826046411ec9dfb4OUT 0x40a2739d8b2cddd5edb8b563ba8e4c3326e237160 BNB0.00022167
0x0aa2fb739d3194a5e3de06edabc7ff67b20191581a31636ff939f88934d7642074691142021-05-16 20:45:2676 days 23 hrs ago0xcb8ae1ec0f07fac6455450b3826046411ec9dfb4OUT 0xd48745e39bbed146eec15b79cbf964884f9877c20 BNB0.00098456
0x10829d1839205f38d522aa5286e09bf10ac5b860c5607d6dd99cae5e32f92e5a74691002021-05-16 20:44:4476 days 23 hrs ago0xcb8ae1ec0f07fac6455450b3826046411ec9dfb4OUT Ethereum: ETH Token0 BNB0.00022203
0xea2dc4f700c019c9ecdec6ff5afe454a182579140febd9c58a99b18177916a6b74690852021-05-16 20:43:5976 days 23 hrs ago0xcb8ae1ec0f07fac6455450b3826046411ec9dfb4OUT Binance: BUSD Stablecoin0 BNB0.00022203
0x0871ea3f71eec986078ecd45a6fc203d897910c3b9ed2f1962f9b01296b7ef3d74690552021-05-16 20:42:2976 days 23 hrs ago0xcb8ae1ec0f07fac6455450b3826046411ec9dfb4OUT Mdex: Router0 BNB0.00088704
0x2ecc816779bec868424bc391b39ef4746c8842d70ebf86d34d9495c56fd9e63374690342021-05-16 20:41:2676 days 23 hrs ago0xcb8ae1ec0f07fac6455450b3826046411ec9dfb4OUT 0xc0ba2569e473974e9004ceeeae76aeaea521525c0 BNB0.00022177
0xc85f0caac5567a99d4eb3a7b3497d6010945fe9bde11cac04ee410e1b88a723374689692021-05-16 20:38:1176 days 23 hrs ago0xcb8ae1ec0f07fac6455450b3826046411ec9dfb4OUT Autofarm: Vault0 BNB0.00153882
0x31759a09ad80c2019b84a897aa6f49d83cd6bf3ea0130517d49e655dc4f7449374185842021-05-15 1:43:1678 days 18 hrs ago0xcb8ae1ec0f07fac6455450b3826046411ec9dfb4OUT 0xb1fa5d3c0111d8e9ac43a19ef17b281d5d4b474e0 BNB0.00100417
0x4d71dd29f37a2285480bbefdfd7cde71782bf04b551793451b27677ae941000e73830352021-05-13 19:46:0380 days 33 mins ago0xcb8ae1ec0f07fac6455450b3826046411ec9dfb4OUT Autofarm: Vault0 BNB0.001694385
0x6920f463ad989348c37abab6c261f9e6d18444811a39ed5b37774e9c5f8ea5e573830142021-05-13 19:45:0080 days 34 mins ago0xcb8ae1ec0f07fac6455450b3826046411ec9dfb4OUT 0xf6e65b33370ee6a49eb0dbcaa9f43839c1ac04d50 BNB0.010911345
0x5c4f9316b09e8b2c56326e389d673e52211aea9f4766f37c297253c99c76f29273828682021-05-13 19:37:4280 days 41 mins ago0xcb8ae1ec0f07fac6455450b3826046411ec9dfb4OUT 0xb1fa5d3c0111d8e9ac43a19ef17b281d5d4b474e0 BNB0.001086925
0xe441cd7e154758b2beb64dd472f436ddec527133cbdece5cb85e80cf105c973873828592021-05-13 19:37:1580 days 42 mins ago0xcb8ae1ec0f07fac6455450b3826046411ec9dfb4OUT 0x4e58b693092e33e46a8734b9c4064b82afdca14f0 BNB0.00022226
0xb4f35b80031bdbc827c66191ee93277ea90fa44b0e5ff8f7d6fe21cfd974aa7273828472021-05-13 19:36:3980 days 42 mins ago0xcb8ae1ec0f07fac6455450b3826046411ec9dfb4OUT 0x4e58b693092e33e46a8734b9c4064b82afdca14f0 BNB0.00234281
0x942530e759e4056221435b4b085d7dbb5d7242f3de61139e0d0cc8d5d7e954ae73828352021-05-13 19:36:0380 days 43 mins ago0xcb8ae1ec0f07fac6455450b3826046411ec9dfb4OUT USD Coin: USDC Token0 BNB0.00023576
0x4b97499d61e00a6963dcc79bbed983a32032bd734a6a5fe2055cf6ecd392ccf973826412021-05-13 19:26:2180 days 53 mins ago0xcb8ae1ec0f07fac6455450b3826046411ec9dfb4OUT PancakeSwap: Router v20 BNB0.00087224
0x4e4aa6c0b905c0fbb613dc4c710b809f0740ba1c5a5a64278072a55846af844973826112021-05-13 19:24:5180 days 54 mins ago0xcb8ae1ec0f07fac6455450b3826046411ec9dfb4OUT PancakeSwap: Router v20 BNB0.000868525
0x84100d821a28743d272bf013bd2f7ebb1cdc18c2642891a02ad05842cc512f9c73825982021-05-13 19:24:1280 days 55 mins ago0xcb8ae1ec0f07fac6455450b3826046411ec9dfb4OUT 0x133ee93fe93320e1182923e1a640912ede17c90c0 BNB0.00022221
0x3433fdbb0c88ff27174caabedb1b0122d4623f17a9c05ab204af62e206e0496b73825492021-05-13 19:21:4580 days 57 mins ago0xcb8ae1ec0f07fac6455450b3826046411ec9dfb4OUT Pancake Bunny: Cake Maximizer - VAI-BUSD0 BNB0.006155385
0xee36c85d894cf3b64b74298a0dad5d6293cefd734bbbbfab1c9d387320e5bdce73822312021-05-13 19:05:5080 days 1 hr ago0xcb8ae1ec0f07fac6455450b3826046411ec9dfb4OUT Pancake Bunny: Bunny Pool0 BNB0.00050348
0x87949b3539129928497f0f88ed794df45f31b7fd93df5d375264d2c4e4a2d35a73821472021-05-13 19:01:2680 days 1 hr ago0xcb8ae1ec0f07fac6455450b3826046411ec9dfb4OUT 0xb1fa5d3c0111d8e9ac43a19ef17b281d5d4b474e0 BNB0.001086925
0x7110343032c748be296b9889a36630c71ae4c05dc4900924d47728ab3904be4c73821352021-05-13 19:00:5080 days 1 hr ago0xcb8ae1ec0f07fac6455450b3826046411ec9dfb4OUT 0x54d01f573017a4e61452cb13432e3a59a79c36bf0 BNB0.00022226
[ Download CSV Export 
Latest 3 internal transactions
Parent Txn Hash Block From To Value
0x219e25f74debff169a00b053843bf84b5f513d208b6d76f505eabf49c8aff96b67944252021-04-22 18:39:48101 days 1 hr ago PancakeSwap: Router0xcb8ae1ec0f07fac6455450b3826046411ec9dfb40.16583943281612586 BNB
0x060f0707dc2e7e3a163163878e79e27526a73e3aa413e57a3e287eb59553bc8f67921822021-04-22 16:45:21101 days 3 hrs ago PancakeSwap: Router0xcb8ae1ec0f07fac6455450b3826046411ec9dfb41.769362529984420259 BNB
0xbc160fcd8afd43ec3049a70a1be752856214f4205ce317bab1cb668bf94cca3267083892021-04-19 17:48:03104 days 2 hrs ago PancakeSwap: Router0xcb8ae1ec0f07fac6455450b3826046411ec9dfb40.001663143051340463 BNB
[ Download CSV Export 
Loading

Contract Name:
0 BNB

Compiler Version
0

Optimization Enabled:
0 BNB

Other Settings:
-NA-
Block Transaction Gas Used Reward
Age Block Fee Address BC Fee Address Voting Power Jailed Incoming
Block Uncle Number Difficulty Gas Used Reward
Loading
Loading
Make sure to use the "Vote Down" button for any spammy posts, and the "Vote Up" for interesting conversations.